TimeEDT,TemperatureF,Dew PointF,Humidity,Sea Level PressureIn,VisibilityMPH,Wind Direction,Wind SpeedMPH,Gust SpeedMPH,PrecipitationIn,Events,Conditions,WindDirDegrees,DateUTC
12:53 AM,71.1,70.0,96,29.96,3.0,Calm,Calm,-,N/A,,Overcast,0,2013-08-27 04:53:00
1:13 AM,71.6,69.8,94,29.96,2.5,Calm,Calm,-,0.00,,Overcast,0,2013-08-27 05:13:00
1:24 AM,71.6,69.8,94,29.96,3.0,Calm,Calm,-,0.00,,Overcast,0,2013-08-27 05:24:00
1:53 AM,72.0,66.9,84,29.93,9.0,Calm,Calm,-,0.00,,Overcast,0,2013-08-27 05:53:00
2:53 AM,68.0,66.0,93,29.94,4.0,Calm,Calm,-,N/A,,Clear,0,2013-08-27 06:53:00
3:53 AM,69.1,66.9,93,29.94,4.0,Calm,Calm,-,N/A,,Mostly Cloudy,0,2013-08-27 07:53:00
4:53 AM,68.0,66.0,93,29.93,5.0,Calm,Calm,-,0.01,,Clear,0,2013-08-27 08:53:00
5:53 AM,66.0,64.0,93,29.93,2.5,Calm,Calm,-,N/A,,Clear,0,2013-08-27 09:53:00
6:35 AM,64.4,62.6,94,29.95,1.2,Calm,Calm,-,N/A,,Clear,0,2013-08-27 10:35:00
6:53 AM,64.9,64.0,97,29.95,1.8,Calm,Calm,-,N/A,,Clear,0,2013-08-27 10:53:00
7:30 AM,66.2,66.2,100,29.96,2.0,Calm,Calm,-,N/A,,Clear,0,2013-08-27 11:30:00
7:53 AM,69.1,66.0,90,29.96,3.0,Calm,Calm,-,N/A,,Clear,0,2013-08-27 11:53:00
8:06 AM,69.8,66.2,88,29.96,2.5,Calm,Calm,-,N/A,,Partly Cloudy,0,2013-08-27 12:06:00
8:18 AM,71.6,68.0,88,29.96,4.0,Calm,Calm,-,N/A,,Partly Cloudy,0,2013-08-27 12:18:00
9:53 AM,78.1,68.0,71,29.96,8.0,NNW,8.1,-,N/A,,Scattered Clouds,340,2013-08-27 13:53:00
10:53 AM,78.1,68.0,71,29.96,8.0,NNE,4.6,-,N/A,,Mostly Cloudy,30,2013-08-27 14:53:00
11:53 AM,81.0,68.0,65,29.95,9.0,Calm,Calm,-,N/A,,Scattered Clouds,0,2013-08-27 15:53:00
12:06 PM,80.6,66.2,61,29.96,9.0,Calm,Calm,-,N/A,,Mostly Cloudy,0,2013-08-27 16:06:00
12:30 PM,82.4,68.0,62,29.96,9.0,Variable,4.6,-,N/A,,Mostly Cloudy,0,2013-08-27 16:30:00
12:53 PM,82.0,66.9,60,29.95,10.0,North,6.9,-,N/A,,Mostly Cloudy,360,2013-08-27 16:53:00
1:53 PM,84.0,68.0,58,29.94,9.0,WNW,5.8,-,N/A,,Scattered Clouds,300,2013-08-27 17:53:00
2:53 PM,84.9,66.9,55,29.91,10.0,North,4.6,-,N/A,,Mostly Cloudy,350,2013-08-27 18:53:00
3:53 PM,87.1,68.0,53,29.90,9.0,Variable,3.5,-,N/A,,Clear,0,2013-08-27 19:53:00
4:53 PM,84.0,68.0,58,29.88,9.0,ESE,4.6,-,N/A,,Mostly Cloudy,110,2013-08-27 20:53:00
6:53 PM,78.1,71.1,79,29.88,9.0,SE,4.6,-,N/A,,Clear,130,2013-08-27 22:53:00
7:53 PM,73.9,71.1,91,29.88,6.0,Calm,Calm,-,N/A,,Clear,0,2013-08-27 23:53:00
8:53 PM,72.0,70.0,93,29.90,5.0,Calm,Calm,-,N/A,,Clear,0,2013-08-28 00:53:00
10:17 PM,71.6,69.8,94,29.93,5.0,West,3.5,-,N/A,Thunderstorm,Mostly Cloudy,270,2013-08-28 02:17:00
10:32 PM,75.2,69.8,83,29.93,8.0,Variable,3.5,-,N/A,,Overcast,0,2013-08-28 02:32:00
11:53 PM,73.0,70.0,90,29.91,7.0,ENE,3.5,-,N/A,,Scattered Clouds,70,2013-08-28 03:53:00